sat.trackr.live / text

‹ back to catalog

STARLINK-32721

NORAD 62438 · 2024-251G

PAYLOAD ACTIVE UNKNOWN

§ Identity

Operator
Country
US
Launch date
2024-12-29
Launch site
AFWTR
Launch vehicle
Mass (kg)
RCS (m²)

Purposes: comms

External: N2YO · Heavens-Above · Gunter

§ Orbital elements

Epoch: 2026-09-21T20:35:08.596896Z

Period
93.85 min
Inclination
53.1581°
Eccentricity
0.0001987
Mean motion
15.34410396 rev/d
Perigee alt
461.3 km
Apogee alt
464.0 km
Semi-major
6,840.8 km
B*
5.4920e-4
RAAN
141.2107°
Arg perigee
97.2436°
Mean anomaly
262.8793°
Rev number
9,796

§ Raw data

STARLINK-327211 62438U 24251G   26264.85773839  .00018231  00000+0  54920-3 0  99942 62438  53.1581 141.2107 0001987  97.2436 262.8793 15.34410396 97964

JSON: /api/v1/satellites/62438 · /tle

For live sub-satellite position, see the globe view (requires WebGL).

§ Visibility from observer

Set your observer location to see the next 7 days of passes ≥ 10°. The values pass through the URL so the page stays shareable.

No JS? Fill the form by hand. The geolocation button needs JavaScript.